Regional Weather Roundup
Issued by NWS

Home | Current Version | Previous Version | Text Only | Print | Product List | Glossary Off
Versions: 1 2 3 4 5 6 7 8 9 10 11 12 13 14 15 16 17 18 19 20 21 22 23 24 25 26 27 28 29 30 31 32 33 34 35 36 37 38 39 40 41 42 43 44 45 46 47 48 49 50

000
ASUS45 KTFX 290710
RWRMT
MONTANA REGIONAL WEATHER ROUNDUP
NATIONAL WEATHER SERVICE GREAT FALLS MT
100 AM MDT SAT APR 29 2017

NOTE: "FAIR" INDICATES FEW OR NO CLOUDS BELOW 12000 FEET WITH NO
SIGNIFICANT WEATHER AND/OR OBSTRUCTIONS TO VISIBILITY.

MTZ001>007-043-290800-
WEST OF THE DIVIDE

CITY           SKY/WX    TMP DP  RH WIND       PRES   REMARKS
KALISPELL      CLOUDY    39  39 100 CALM      30.20R
MISSOULA       CLEAR     38  31  76 SW3       30.24R
BUTTE          CLOUDY    38  26  62 VRB3      30.19R
MULLAN PASS    CLOUDY    30  30 100 VRB5      30.19R FOG
ANACONDA         N/A     30  25  80 W5        30.20R
DEER LODGE       N/A     39  28  65 NW7       30.22S
EUREKA           N/A     43  37  81 SE10      30.18S
HAMILTON         N/A     41  28  60 E6        30.23R
LIBBY            N/A     37  37 100 CALM      30.20R
$$

MTZ008-052>055-290800-
SOUTHWEST MONTANA

CITY           SKY/WX    TMP DP  RH WIND       PRES   REMARKS
BOZEMAN        CLOUDY    35  34  96 NE3       30.19R
DILLON         CLOUDY    36  29  75 CALM      30.17R
W YELLOWSTONE  CLOUDY    27  23  86 CALM      30.15R
THREE FORKS      N/A     36  36 100 CALM      30.16S
$$

MTZ009-010-012-014-046-048-049-054-290800-
EAST SLOPES AND CENTRAL MONTANA

CITY           SKY/WX    TMP DP  RH WIND       PRES   REMARKS
CUT BANK       PTCLDY    36  32  85 S8        30.14S WCI  30
GREAT FALLS    CLEAR     32  28  85 S9        30.18S WCI  24
MALMSTROM AFB  CLEAR     30  29  98 S6        30.19R WCI  24
HELENA         CLOUDY    40  33  76 CALM      30.19R
AUGUSTA        MOCLDY    33  33 100 CALM      30.16S
BOWMANS CRNR     N/A     31  30  96 S7        30.15S WCI  24
CHOTEAU          N/A     37  36  93 SW7       30.18S
FAIRFIELD      MOCLDY    37  33  83 S7        30.16S WCI  32
POWER          MOCLDY    35  33  93 SW9       30.16S WCI  27
RAYNESFORD       N/A     32  29  90 E6        30.19R WCI  26
ULM              N/A     33  32  94 CALM      30.19R
$$

MTZ011-013-016-021-045-047-050-051-290800-
NORTH CENTRAL MONTANA

CITY           SKY/WX    TMP DP  RH WIND       PRES   REMARKS
HAVRE          CLEAR     31  28  89 W3        30.18R
LEWISTOWN      CLOUDY    29  28  96 SE6       30.19S WCI  23
CHINOOK          N/A     36  28  75 CALM      30.18S
DENTON           N/A     31  30  97 MISG      30.16R
FORT BENTON      N/A     37  34  87 MISG      30.20R
GEYSER           N/A     33  30  88 SW6       30.18R WCI  27
GRASS RANGE    MOCLDY    37  34  89 SW12      30.16R WCI  29
JUDITH GAP     MOCLDY    34  32  95 W5        30.18S
STANFORD         N/A     30  28  92 W3        30.18S
WINIFRED         N/A     36  33  87 SW5       30.18R
$$

MTZ017>020-022>027-061-062-290800-
NORTHEAST MONTANA

CITY           SKY/WX    TMP DP  RH WIND       PRES   REMARKS
GLASGOW        MOCLDY    42  34  73 CALM      30.17R
JORDAN           N/A     34  30  85 W3        30.18R
SIDNEY         CLEAR     33  25  72 CALM      30.17S
WOLF POINT     PTCLDY    42  34  73 N3        30.18R
PLENTYWOOD       N/A     39  34  81 W9        30.17R
POPLAR           N/A     39  32  75 NW7       30.18R
SCOBEY           N/A     35  27  73 CALM      30.14S
$$

MTZ028>42-056>058-290800-
SOUTHCENTRAL AND SOUTHEAST MONTANA

CITY           SKY/WX    TMP DP  RH WIND       PRES   REMARKS
BAKER          CLOUDY    36  26  67 S8        30.19S WCI  30
BILLINGS       PTCLDY    38  34  85 S5        30.19R
LIVINGSTON     CLOUDY    37  34  89 CALM      30.18R
MILES CITY     CLOUDY    37  29  72 W6        30.18R
BIG TIMBER     CLOUDY    37  36  93 CALM      30.21S
LAUREL           N/A     36  27  70 CALM      30.15F
ROUNDUP          N/A     40  33  76 SW3       30.08S
$$

REGIONAL REPORTS...DAKOTAS

CITY           SKY/WX    TMP DP  RH WIND       PRES   REMARKS
WILLISTON      CLOUDY    36  27  69 CALM      30.16S
MINOT          PTCLDY    37  24  59 S6        30.18R
DICKINSON      CLOUDY    28  17  63 S8        30.18S WCI  20
BEACH            N/A     34  27  75 S7        30.21S WCI  28
TIOGA            N/A     39  21  48 S12       30.18R WCI  32
WATFORD CITY     N/A     36  23  60 S3        30.18R
BISMARCK       CLEAR     30  24  78 CALM      30.22R
GRAND FORKS    CLEAR     34  28  79 NW3       30.21R
FARGO          CLEAR     33  25  72 CALM      30.21R
BUFFALO SD       N/A     40  27  59 SW5       30.13S
RAPID CITY     CLOUDY    32  20  61 NE8       30.17F WCI  25
$$

REGIONAL REPORTS...WYOMING/IDAHO/WASHINGTON

CITY           SKY/WX    TMP DP  RH WIND       PRES   REMARKS
GILLETTE       CLOUDY    29  27  92 CALM      30.18S
SHERIDAN       CLOUDY    30  26  85 CALM      30.19R
BUFFALO WY     CLOUDY    30  18  60 NW3       30.17F
CODY           CLOUDY    34  28  79 NW3       30.19R
YELLOWSTONE LA   N/A     20  17  88 CALM      30.14R
IDAHO FALLS    CLOUDY    33  27  78 N10       30.11R WCI  25
SALMON         CLEAR     36  27  69 E5        30.19R
BOISE          CLEAR     43  30  60 NW9       30.16R
SPOKANE        MOCLDY    47  33  58 S9        30.19S
$$

REGIONAL REPORTS...ALBERTA

CITY           SKY/WX    TMP DP  RH WIND       PRES   REMARKS
EDMONTON       CLOUDY    39  27  60 S7        30.09F
CALGARY        MOCLDY    37  32  81 SW7       30.11S
LETHBRIDGE     CLEAR     36  32  87 S10       30.13S WCI  28
MEDICINE HAT   CLOUDY    36  30  80 SW2       30.15S
CARDSTON         N/A     34  34 100 S3          N/A
MILK RIVER       N/A     41  36  81 S3          N/A
ONEFOUR          N/A     36  27  69 S3          N/A
$$

REGIONAL REPORTS...SASKATCHEWAN

CITY           SKY/WX    TMP DP  RH WIND       PRES   REMARKS
SWIFT CURRENT  MOCLDY    32  27  80 SW8       30.13R WCI  25
REGINA         CLOUDY    37  37 100 S5        30.16R
SASKATOON      PTCLDY    30  27  86 S6        30.10S WCI  24
CYPRESS HILLS    N/A     30  23  74 NW1         N/A
VAL MARIE        N/A     32  30  93 SW2         N/A
ASSINIBOIA       N/A     34  32  93 S3          N/A
$$



USA.gov is the U.S. government's official web portal to all federal, state and local government web resources and services.